Flag for Tuvalu Weather past 2 weeks in Funafuti, Tuvalu

Now
86 °F

Passing clouds.


Feels Like: 99 °F
Forecast: 76 / 90 °F
Wind: No wind

Location: Funafuti


UV Index: 7 (High)

Visibility: N/A


Pressure: 29.86 "Hg

Humidity: 79%

Dew point: 79 °F

Location of FunafutiLocation

Historic Weather in Funafuti

°F

Funafuti temperature yesterday

Maximum temperature yesterday: 88 °F (at 2:00 PM)
Minimum temperature yesterday: 79 °F (at 3:00 AM)
Average temperature yesterday: 83 °F

Past Weeks' High & Low Weather Summary

 TemperatureHumidityPressure
High91 °F (Apr 10, 11:00 AM)100% (Apr 19, 4:00 AM)29.86 "Hg (Apr 19, 4:00 AM)
Low77 °F (Apr 8, 5:00 AM)67% (Apr 6, 11:00 AM)29.68 "Hg (Apr 9, 2:00 PM)
Average85 °F81%29.79 "Hg
* Reported Apr 6 7:00 AM — Apr 21 7:00 AM, Funafuti, Weather by CustomWeather, © 2014

Note: Actual official high and low records may vary slightly from our data, if they occured in-between our weather recording intervals... More about our weather records

Advertising

Historic Weather Conditions — Data for Previous 24 hours

 ConditionsComfort  
Time TempWeatherWind HumidityBarometerVisibility
7:00 AM
Apr 21
84 °FScattered clouds.3 mph79%29.86 "HgN/A
6:00 AM82 °FPassing clouds.No wind84%29.83 "HgN/A
5:00 AM82 °FPassing clouds.No wind84%29.83 "HgN/A
4:00 AM82 °FScattered showers. Passing clouds.No wind84%29.77 "HgN/A
3:00 AM82 °FScattered showers. Partly cloudy.3 mph84%29.83 "HgN/A
2:00 AM82 °FPartly cloudy.No wind84%29.83 "HgN/A
1:00 AM82 °FPassing clouds.No wind84%29.86 "HgN/A
12:00 AM82 °FPassing clouds.6 mph84%29.86 "HgN/A
11:00 PM
Apr 20
82 °FPassing clouds.8 mph84%29.86 "HgN/A
10:00 PM82 °FPassing clouds.8 mph84%29.86 "HgN/A
9:00 PM82 °FPassing clouds.2 mph84%29.86 "HgN/A
8:00 PM81 °FPassing clouds.1 mph89%29.86 "HgN/A
7:00 PM82 °FPassing clouds.No wind84%29.83 "HgN/A
6:00 PM82 °FOvercast.No wind84%29.80 "HgN/A
5:00 PM84 °FScattered showers. Cloudy.5 mph79%29.80 "HgN/A
4:00 PM86 °FScattered showers. Cloudy.9 mph75%29.77 "HgN/A
3:00 PM88 °FBroken clouds.3 mph70%29.77 "HgN/A
2:00 PM88 °FBroken clouds.3 mph75%29.80 "HgN/A
12:00 PM84 °FScattered showers. Broken clouds.3 mph84%29.83 "HgN/A
11:00 AM86 °FScattered showers. Broken clouds.3 mph79%29.86 "HgN/A
10:00 AM86 °FScattered clouds.5 mph79%29.86 "HgN/A
9:00 AM86 °FScattered showers. Scattered clouds.2 mph79%29.86 "HgN/A
8:00 AM82 °FSprinkles. Scattered clouds.No wind89%29.86 "HgN/A
Weather by CustomWeather, © 2014

See weather overview